Location: Ash Swamp
(41.5170°N, 74.6157°W)
Time: 17:26:04
(UTC+00:00)

Cosmos 1869 Rocket - Pass Details

Date: 14 July 2020
Orbit: 605 x 633 km, 82.5° (Epoch: 05 August)

Event Time Altitude Azimuth Distance (km) Brightness Sun altitude
Exits shadow 06:56:11 54° 262° (W) 737 3.7 -21.8°
Maximum altitude 06:56:29 56° 280° (W) 727 3.7 -21.8°
Drops below altitude 10° 07:00:46 10° 359° (N) 1,967 7.0 -21.4°
Sets 07:03:02 0° 4° (N) 2,879 8.1 -21.2°
